Notices

What's New in latest Release from April 7th, 2021:

- Updated Glossary, including Speed of Maximum Gust, and Total Hourly Precipitation

- Updated national and regional climate services offices contacts and prices information

- Addition of station inventory lists for 1981-2010, 1971-2000, and 1961-1990 Normals.

If you haven't already, please take our survey and provide feedback about our website: https://eccc.sondage-survey.ca/f/LanguageSelection.aspx?s=442ca660-fcf1-47c0-95a9-59707d6fd709

Hourly Data Report for June 10, 2020

TRENTON A
ONTARIO
Current Station Operator: DND

44°07'00.000" N
77°32'00.000" W
86.30 m
6158875
71621
YTR

Download Data

Hourly Data (June 2020)
Hourly Data Report for June 10, 2020
TIME
LST
Temp Definition
°C
Dew Point Definition
°C
Rel Hum Definition
%
Precip. Amount Definition
mm

Wind Dir Definition
10's deg

Wind Spd Definition
km/h
Visibility Definition
km
Stn Press Definition
kPa
Hmdx Definition


Wind Chill Definition


Weather Definition


00:00 18.0 10.4 61   5 9 24.1 100.14     Mostly Cloudy
01:00 17.4 10.0 62   6 11 24.1 100.11     Mostly Cloudy
02:00 17.3 10.2 63   6 11 24.1 100.05     Mostly Cloudy
03:00 17.7 10.4 62   6 13 24.1 99.94     Cloudy
04:00 17.1 10.2 64   7 8 24.1 99.94     Mostly Cloudy
05:00 16.8 10.6 67   6 9 24.1 99.87     Mostly Cloudy
06:00 18.7 14.5 77   7 11 24.1 99.82     Cloudy
07:00 17.2 16.5 96   5 5 12.9 99.93     Thunderstorms,Rain Showers
08:00 17.9 17.2 96   9 13 6.4 99.93     Thunderstorms,Moderate Rain Showers,Fog
09:00 20.1 18.7 92   10 11 24.1 99.80 27   Cloudy
10:00 21.6 19.2 86   11 9 24.1 99.83 29   Mostly Cloudy
11:00 25.4 17.7 62   14 11 24.1 99.78 31   Mostly Cloudy
12:00 27.8 18.7 58   16 11 24.1 99.68 34   Mainly Clear
13:00 27.7 18.3 57   16 18 24.1 99.62 34   Mostly Cloudy
14:00 28.3 18.7 56   17 13 24.1 99.56 35   Mostly Cloudy
15:00 29.5 19.6 55   17 15 24.1 99.53 37   Mostly Cloudy
16:00 27.8 18.7 58   24 13 24.1 99.47 34   Mainly Clear
17:00 28.6 19.0 56   19 5 24.1 99.40 35   Mainly Clear
18:00 28.4 19.6 59   14 5 24.1 99.36 36   Mostly Cloudy
19:00 27.9 20.3 63     0 24.1 99.36 36   Mostly Cloudy
20:00 25.9 18.0 62   16 4 16.1 99.29 32   Rain,Rain Showers
21:00 26.4 17.0 56   21 9 16.1 99.25 32   Thunderstorms
22:00 21.9 15.1 65   35 18 24.1 99.45 26   Mostly Cloudy
23:00   14.6 66   5 9 24.1 99.41     Mostly Cloudy

Notes on Data Quality.

Legend

  • E = Estimated
  • M = Missing
  • NA = Not Available*
  • [empty] = Indicates an unobserved value
Date modified: